Date,TemperatureHighF,TemperatureAvgF,TemperatureLowF,DewpointHighF,DewpointAvgF,DewpointLowF,HumidityHigh,HumidityAvg,HumidityLow,PressureMaxIn,PressureMinIn,WindSpeedMaxMPH,WindSpeedAvgMPH,GustSpeedMaxMPH,PrecipitationSumIn
2013-2-1,36,34,32,28,27,25,83,76,71,30.49,30.29,18,9,19,0.00
2013-2-2,39,32,26,28,24,19,85,75,62,30.57,30.45,10,3,11,0.00
2013-2-3,30,25,21,22,19,16,80,75,68,30.46,30.28,7,4,8,0.00
2013-2-4,42,34,28,28,24,20,82,66,55,30.30,30.21,9,2,11,0.00
2013-2-5,42,33,26,28,24,19,77,69,56,30.25,30.03,10,3,10,0.00
2013-2-6,38,27,22,27,21,15,85,76,57,30.28,30.06,14,5,17,0.00
2013-2-7,45,26,19,22,15,11,76,64,32,30.29,30.02,12,3,12,0.00
2013-2-8,36,30,26,27,19,12,81,64,50,30.02,29.86,14,5,14,0.00
2013-2-9,35,28,23,23,19,16,76,68,50,29.97,29.84,16,6,16,0.04
2013-2-10,33,26,12,17,8,-2,76,47,35,30.21,30.02,20,8,24,0.00
2013-2-11,31,19,2,13,4,-10,61,52,36,30.31,30.20,8,3,8,0.00
2013-2-12,33,25,17,22,13,6,70,62,48,30.39,30.31,11,3,12,0.00
2013-2-13,36,33,28,24,22,19,70,64,60,30.37,30.25,17,8,18,0.00
2013-2-14,38,32,22,26,22,15,77,66,55,30.46,30.28,15,7,17,0.00
2013-2-15,41,32,21,28,22,14,75,65,58,30.56,30.46,12,5,14,0.00
2013-2-16,46,35,24,27,21,15,69,58,45,30.50,30.07,8,3,11,0.00
2013-2-17,41,35,26,25,18,10,74,51,29,30.09,29.99,19,7,19,0.00
2013-2-18,38,28,19,19,14,9,72,56,39,30.22,30.04,14,3,14,0.00
2013-2-19,35,27,23,23,12,8,60,54,51,30.04,29.83,4,2,4,0.00
2013-2-20,31,28,24,25,20,16,78,71,63,29.98,29.81,16,6,17,0.00
2013-2-21,33,26,21,18,16,11,77,66,53,30.12,29.98,12,6,13,0.06
2013-2-22,34,28,20,22,19,14,78,69,57,30.21,30.04,16,8,19,0.01
2013-2-23,31,28,19,24,20,9,81,71,57,30.12,29.83,29,8,29,0.02
2013-2-24,34,20,6,18,7,-4,66,57,45,30.33,30.12,14,4,14,0.00
2013-2-25,34,24,9,20,11,-1,78,59,43,30.31,30.11,11,4,14,0.00
2013-2-26,35,23,16,20,14,7,78,66,45,30.40,30.15,15,3,15,0.02
2013-2-27,38,21,9,18,8,-1,68,57,39,30.45,30.39,8,2,8,0.04
2013-2-28,39,29,14,23,15,4,75,57,37,30.55,30.45,7,2,8,0.00